Temperature
19 20 20 20 24 24 23 22 23 23 23 21 21 21 20 19 19 17 13 13 14 15 14 15 15 15 15 15 15 16 16 16 16 16 16 15 15 15 15 16 16 16 16 16 16 16 16 16 16
19 20 20 22 25 23 22 22 22 21 21 21 20 20 18 15 13 12 11 12 13 14 14 14 15 15 15 15 15 15 15 15 16 16 16 16 15 15 15 15 15 15 15 15 16 16 16 16 16
20 20 21 24 23 22 21 21 21 20 19 20 19 16 14 11 10 9 10 11 13 14 14 14 14 14 14 14 14 14 14 14 15 15 15 15 15 15 15 15 15 15 15 15 15 15 16 16 16
20 21 23 24 21 20 20 20 20 21 19 17 19 15 11 8 8 8 9 11 13 14 14 14 14 14 14 14 14 14 14 14 14 14 14 14 15 15 15 15 15 15 15 15 15 15 15 15 15
21 23 23 22 21 20 19 18 18 19 17 15 17 14 10 8 8 8 9 11 13 13 13 13 14 14 14 14 14 14 14 14 14 14 14 14 14 14 14 14 14 15 15 15 15 15 15 15 15
21 24 23 21 20 20 19 16 17 15 14 12 14 14 10 8 8 8 9 10 12 12 13 13 13 13 14 14 14 14 14 14 14 14 14 14 14 14 14 14 14 14 14 14 15 15 15 15 15
22 23 22 21 20 19 18 14 13 14 12 10 11 13 10 8 8 8 9 10 11 12 12 12 12 12 12 13 13 13 13 13 13 13 14 14 14 14 14 14 14 14 14 14 14 14 14 14 14
20 23 21 21 20 18 16 13 10 10 10 9 9 10 9 7 8 8 9 10 11 11 11 11 12 12 12 12 12 12 12 13 13 13 13 13 13 13 13 13 13 14 14 14 14 14 14 14 14
20 22 21 20 20 16 14 13 10 9 9 8 8 7 7 7 8 9 10 10 10 10 10 11 11 11 12 12 12 12 12 12 13 13 13 13 13 13 13 13 13 13 13 13 14 14 14 14 14
21 21 19 18 18 14 12 12 11 10 10 9 8 7 7 7 8 8 8 8 8 9 9 10 10 11 11 11 11 12 12 12 12 12 12 12 12 12 13 13 13 13 13 13 13 13 13 13 13
19 18 17 15 13 12 11 10 10 10 9 8 7 7 7 7 7 7 7 7 7 8 9 9 10 10 10 10 11 11 11 11 12 12 12 12 12 12 12 12 13 13 13 13 13 13 13 13 13
16 13 15 14 12 12 11 10 8 8 7 6 6 6 6 6 6 6 6 6 7 8 8 9 9 9 10 10 10 10 10 10 11 11 11 11 12 12 12 12 12 12 12 13 13 13 13 13 13
16 12 11 10 10 9 9 8 8 7 6 6 6 6 5 5 5 5 5 5 6 7 8 8 8 8 9 9 9 9 9 9 9 9 9 10 10 10 11 11 11 12 12 12 12 12 12 12 12
15 13 12 11 10 10 9 9 8 6 6 6 6 5 5 5 4 5 5 5 5 6 6 7 7 7 7 7 7 7 6 6 6 6 6 7 7 8 9 9 10 10 11 11 11 11 12 12 12
15 15 14 13 12 10 10 9 8 6 7 7 6 6 5 4 4 4 3 3 4 4 5 5 5 6 5 5 5 4 4 3 3 3 3 3 4 5 5 6 7 8 9 10 10 10 11 11 11
18 18 17 13 12 11 13 9 7 6 7 7 6 6 5 4 4 3 2 3 3 3 3 3 3 4 3 3 3 2 2 1 1 1 1 1 2 2 3 4 4 5 6 7 8 8 9 10 10
19 19 17 14 12 12 12 8 7 6 7 6 6 6 5 5 4 3 2 2 2 2 2 2 2 2 2 2 1 0 -0 -0 -0 -0 -0 0 0 1 1 2 2 3 3 4 5 6 7 8 9
19 19 17 15 11 11 10 8 6 6 6 6 6 6 5 4 3 2 1 1 1 1 1 0 0 0 0 0 -0 -0 -1 -1 -1 -1 -1 -1 -1 -1 -0 -0 1 1 2 2 3 4 5 6 7
18 18 16 12 10 10 9 7 7 6 6 6 6 5 5 4 3 2 1 1 0 -0 -0 -1 -1 -1 -1 -1 -2 -2 -2 -2 -2 -2 -2 -2 -2 -2 -2 -2 -1 -0 0 1 1 2 3 4 5
17 17 14 11 10 9 8 7 7 6 5 5 5 5 4 3 3 2 1 -0 -1 -2 -2 -2 -2 -2 -3 -3 -3 -4 -4 -4 -4 -3 -3 -3 -3 -3 -3 -3 -3 -2 -2 -1 -0 0 1 2 3
16 17 15 13 9 9 8 7 6 6 5 5 5 4 4 3 2 1 0 -1 -2 -3 -3 -3 -3 -4 -4 -4 -4 -4 -4 -5 -5 -5 -4 -3 -4 -4 -4 -4 -4 -4 -3 -3 -2 -1 -0 0 1
16 14 13 12 11 11 10 13 8 6 6 6 5 4 4 3 2 0 -1 -2 -3 -4 -4 -4 -4 -5 -5 -5 -6 -6 -6 -6 -6 -6 -6 -5 -5 -5 -5 -5 -5 -5 -4 -4 -3 -2 -1 -0 0
14 12 12 12 13 12 11 11 11 6 6 6 5 4 3 2 1 -0 -1 -3 -4 -4 -5 -5 -5 -6 -6 -6 -7 -7 -7 -7 -7 -7 -7 -6 -6 -6 -6 -6 -6 -5 -5 -4 -4 -3 -2 -1 -0
12 12 12 12 13 14 13 12 12 7 6 6 5 4 3 2 1 -0 -2 -3 -4 -5 -6 -6 -6 -7 -7 -7 -7 -8 -8 -8 -8 -8 -8 -7 -7 -7 -7 -6 -6 -6 -6 -5 -4 -4 -3 -2 -1
14 16 17 17 16 16 11 11 10 6 5 5 4 3 3 2 0 -1 -2 -4 -5 -6 -7 -7 -7 -7 -8 -8 -8 -8 -8 -9 -9 -9 -8 -8 -8 -8 -7 -7 -7 -7 -6 -6 -5 -4 -3 -3 -2
13 15 16 15 16 16 11 11 8 6 4 4 3 3 2 1 -0 -2 -3 -4 -5 -6 -7 -8 -8 -8 -8 -9 -9 -9 -9 -9 -9 -9 -9 -9 -9 -9 -8 -8 -8 -7 -7 -6 -5 -5 -4 -3 -2
14 13 12 13 13 12 13 9 5 5 5 4 4 3 2 1 -1 -2 -4 -5 -6 -7 -8 -8 -9 -9 -9 -9 -9 -9 -10 -10 -10 -10 -10 -10 -9 -9 -9 -9 -8 -8 -7 -7 -6 -5 -5 -4 -3
12 12 12 13 13 14 15 11 9 5 5 5 4 3 1 0 -2 -3 -4 -5 -7 -7 -8 -8 -9 -9 -10 -10 -10 -10 -10 -10 -10 -10 -10 -10 -10 -10 -9 -9 -9 -8 -8 -7 -7 -6 -5 -5 -4
12 11 11 12 12 12 12 12 7 5 4 4 3 2 0 -1 -2 -3 -4 -6 -7 -8 -8 -9 -9 -10 -10 -10 -10 -11 -11 -11 -11 -11 -11 -11 -11 -10 -10 -10 -9 -9 -8 -8 -7 -7 -6 -6 -5
10 10 11 12 12 11 11 10 6 5 4 3 2 1 -0 -2 -3 -4 -5 -6 -7 -8 -9 -9 -10 -10 -10 -11 -11 -11 -11 -11 -11 -11 -12 -12 -11 -11 -11 -11 -10 -10 -9 -8 -8 -7 -6 -6 -6
Wind_Speed
9 5 3 2 4 11 14 8 8 12 10 12 14 14 16 16 10 7 13 23 20 14 13 13 13 11 10 9 9 9 9 9 10 10 10 10 10 10 9 9 9 8 8 7 7 7 7 7 6
6 3 2 1 10 15 12 9 12 11 8 6 11 15 16 15 14 8 16 22 20 19 19 22 21 16 13 11 11 10 10 10 11 11 11 11 12 12 10 11 10 9 8 8 9 9 9 8 8
2 2 1 6 12 13 9 9 8 10 15 10 9 12 9 9 12 12 18 19 19 21 22 26 28 25 21 17 14 13 13 12 12 12 13 13 13 13 13 12 11 9 8 8 9 9 9 9 9
2 1 5 14 21 14 10 10 6 6 12 16 10 11 9 11 10 14 17 19 19 21 23 27 31 30 29 27 24 21 19 17 16 15 15 15 15 15 14 13 12 10 9 8 8 7 8 8 8
1 5 13 17 18 13 15 15 15 13 8 14 13 11 9 13 14 15 17 20 21 22 24 27 31 31 31 31 29 28 26 24 22 21 19 18 17 16 16 15 13 11 10 9 8 7 6 6 6
3 5 13 16 15 12 13 17 12 19 14 12 11 10 9 14 16 16 17 20 23 24 25 26 29 30 30 31 30 29 29 27 25 25 23 21 18 17 16 15 14 13 11 10 9 8 7 6 5
6 7 12 14 13 10 9 11 20 13 17 14 9 7 6 18 15 14 17 20 24 26 26 26 27 27 26 28 30 29 29 29 27 27 27 24 20 18 16 15 14 13 13 12 11 10 9 8 7
4 7 10 9 9 7 8 9 12 18 13 12 11 8 8 14 13 13 16 20 23 25 26 27 27 26 25 23 26 26 27 28 27 27 28 25 21 19 17 17 17 16 14 13 12 12 11 10 9
3 7 8 5 6 7 7 8 10 13 18 19 17 17 12 12 14 16 19 22 23 23 24 26 26 26 25 22 22 23 23 25 25 24 26 23 19 18 17 18 19 18 16 14 13 12 12 11 12
6 7 8 7 9 12 15 14 10 10 18 19 18 17 15 15 18 22 23 23 23 24 23 24 25 25 24 21 20 19 19 20 21 22 23 20 18 17 18 18 18 18 17 15 11 12 12 13 12
7 9 10 13 16 15 13 13 10 9 14 15 15 15 16 18 20 21 21 20 20 20 21 21 23 23 23 20 18 17 17 17 18 21 23 20 17 16 16 15 15 16 16 13 13 11 9 10 9
10 13 8 8 10 11 13 11 14 17 12 13 14 14 16 19 20 20 20 19 19 20 21 21 23 22 22 20 17 16 16 16 16 18 21 20 15 15 16 13 15 14 12 13 12 9 10 10 11
11 12 20 23 25 22 23 20 18 17 14 13 14 16 18 18 18 17 17 18 19 20 21 21 23 23 22 19 17 16 16 16 16 16 18 20 16 15 16 14 14 14 14 13 12 11 11 10 10
14 19 17 15 16 13 18 15 10 11 11 12 14 16 16 17 17 18 19 19 20 20 21 20 22 23 22 19 18 17 16 16 16 16 18 19 18 17 16 14 14 14 15 15 14 13 12 11 10
20 18 14 9 11 12 12 14 11 9 9 12 13 14 15 16 16 17 18 18 18 19 19 20 21 23 22 21 19 17 17 17 16 16 17 19 19 19 18 14 12 14 17 16 14 14 12 11 11
7 7 6 5 3 4 2 8 9 7 8 11 12 12 13 14 15 15 16 17 18 18 19 19 20 22 22 21 19 17 17 17 16 17 17 19 20 20 18 14 13 17 16 14 12 12 11 11 11
5 4 5 5 5 2 4 9 8 6 8 10 10 11 12 13 15 15 16 17 18 18 19 20 20 21 21 20 19 18 17 17 16 16 17 20 20 21 19 14 15 18 14 12 12 12 12 12 12
3 4 4 4 5 5 9 13 10 7 7 9 9 10 12 13 14 15 16 17 18 19 20 20 19 21 21 18 17 16 16 16 16 16 18 20 20 21 19 15 17 17 13 12 13 14 13 12 12
3 4 5 4 4 5 11 13 9 7 6 8 9 11 12 13 13 13 15 17 18 20 21 21 20 20 18 15 15 15 15 14 14 16 19 20 21 21 18 15 16 15 13 14 15 14 14 12 11
5 5 4 6 6 5 10 9 7 6 6 7 9 10 12 13 14 15 16 17 18 19 20 20 19 19 17 15 14 13 14 13 14 17 19 20 21 20 17 16 14 14 14 15 15 14 11 11 10
3 1 1 5 5 6 8 8 9 6 4 5 7 9 12 13 14 14 15 16 17 18 18 17 19 18 18 19 15 13 12 12 12 14 14 19 21 20 18 18 16 15 13 13 15 14 14 12 12
1 1 2 8 8 5 9 5 11 9 4 3 7 11 13 14 14 13 14 16 17 17 17 17 18 17 18 18 16 17 14 14 16 14 14 19 20 19 19 19 18 16 13 14 14 14 13 13 11
3 2 3 8 7 4 8 7 6 9 6 2 8 11 13 14 14 13 14 15 15 16 16 16 17 17 17 18 17 16 15 14 14 15 17 17 18 19 19 19 18 16 13 15 16 15 14 12 11
2 2 4 4 5 5 4 6 3 5 3 3 8 12 14 14 14 13 13 14 14 15 15 16 17 16 17 17 17 17 17 18 18 18 17 16 14 15 19 21 19 17 14 15 16 15 16 13 13
4 4 4 3 4 2 3 5 1 8 4 5 9 13 15 15 14 13 14 15 15 16 16 16 17 16 17 18 17 17 17 18 18 18 17 17 15 15 18 20 18 17 17 17 15 15 15 15 14
5 6 5 7 8 5 2 3 4 7 2 4 8 12 14 15 13 13 13 14 15 16 16 16 16 17 17 17 17 17 17 14 14 17 16 16 15 15 19 21 20 19 19 17 15 14 15 14 14
2 2 3 5 6 7 4 3 5 4 2 6 10 13 15 15 13 12 13 14 15 15 16 16 16 17 17 18 18 17 17 16 17 17 16 15 15 17 21 21 19 19 19 17 17 13 15 14 14
4 1 2 4 7 9 8 3 1 5 2 8 12 15 16 14 12 12 13 14 14 15 15 15 16 16 17 17 16 15 17 16 17 16 17 18 18 20 20 19 19 18 18 17 16 15 14 15 14
1 1 1 1 3 6 9 4 5 4 4 9 13 15 15 14 12 13 13 14 14 15 15 15 16 17 17 17 17 17 16 16 17 16 17 17 18 19 19 19 19 19 18 18 16 16 16 16 15
1 1 1 4 4 5 8 3 8 3 5 9 13 14 14 12 12 13 14 14 15 15 15 15 16 16 17 17 17 17 16 16 17 17 17 18 18 19 19 18 19 19 18 18 17 17 17 15 14
Wind_Direction
325 323 287 247 131 94 84 58 64 71 67 61 64 72 70 55 41 57 356 355 357 10 15 18 14 0 354 348 344 341 339 336 334 333 332 329 326 323 317 318 315 309 307 297 286 279 275 271 262
323 308 258 257 113 99 81 65 64 52 36 77 66 65 63 50 30 18 354 347 3 16 19 17 13 5 356 348 341 336 332 329 326 323 322 320 317 316 311 315 312 308 310 308 292 280 272 269 264
301 294 37 77 84 83 79 46 48 63 49 50 69 52 49 24 11 0 349 350 14 23 24 22 20 19 15 6 356 346 338 330 324 319 316 313 311 309 308 312 312 306 305 308 303 286 271 265 260
273 115 77 87 80 62 50 32 27 91 52 31 71 66 69 30 5 355 358 11 25 28 27 26 25 26 26 24 20 13 5 354 343 333 323 315 309 307 308 307 309 303 297 299 300 295 277 267 262
302 89 92 89 82 71 53 40 51 58 59 30 61 83 63 23 13 11 17 24 30 30 29 29 28 28 28 28 26 25 22 17 10 1 349 335 322 313 310 308 307 300 293 293 294 295 288 274 265
82 94 98 91 91 81 58 35 46 50 49 30 45 85 62 21 15 19 26 31 34 33 30 28 27 27 28 28 26 25 22 19 16 12 4 355 342 329 319 313 310 303 295 291 290 289 288 278 269
88 85 97 102 94 72 47 46 36 42 42 30 12 73 59 19 17 26 33 35 35 33 30 27 24 23 23 25 24 22 21 19 16 13 8 1 355 348 341 333 325 314 302 292 285 281 280 275 268
62 102 103 94 91 75 56 64 50 39 48 37 38 60 36 16 23 33 38 37 35 31 28 24 22 20 17 17 19 17 18 15 12 11 7 1 357 356 353 352 349 338 321 304 289 279 274 271 266
50 93 92 81 94 91 73 86 70 67 72 67 64 65 54 36 36 37 36 33 30 27 24 21 18 16 12 11 11 11 12 11 9 8 4 1 357 356 352 353 351 349 342 324 304 288 276 269 251
55 89 72 56 92 107 84 82 97 81 67 66 63 58 50 43 39 38 34 29 25 21 18 17 15 12 9 7 6 5 6 5 6 4 1 358 354 352 349 343 348 346 340 329 320 306 281 261 254
64 78 91 77 95 106 97 76 74 102 63 57 57 52 45 43 41 38 34 29 24 19 17 14 13 10 8 4 2 1 359 358 358 0 359 355 352 349 349 345 343 341 338 337 327 311 291 277 265
86 53 78 93 95 94 98 98 76 74 84 75 65 56 50 46 42 35 30 25 20 17 14 10 9 7 5 1 357 356 355 354 353 354 356 355 350 347 346 340 338 336 335 332 325 312 299 288 274
90 88 79 89 90 92 95 92 91 86 87 81 71 61 52 47 42 36 29 23 18 14 10 7 4 4 0 357 354 352 351 350 348 350 353 354 348 344 341 335 335 333 332 327 321 311 304 291 280
112 113 106 100 97 92 94 90 86 91 93 81 69 60 52 46 38 31 24 19 15 11 6 3 1 0 357 355 351 348 347 346 346 348 349 351 348 343 338 332 332 332 331 326 316 309 303 292 280
121 114 108 107 109 126 99 77 89 106 96 79 69 62 53 44 37 30 22 16 11 7 3 2 357 356 356 353 350 346 345 345 344 345 345 349 347 342 337 330 328 332 328 322 317 311 303 294 286
146 143 116 91 111 166 174 106 108 112 94 77 65 57 50 43 35 28 21 15 10 5 2 360 358 354 354 351 347 345 343 344 342 343 343 346 344 342 336 330 328 331 327 323 321 315 308 298 289
185 168 137 118 52 123 128 130 126 117 95 77 62 51 42 35 28 23 18 13 8 5 1 358 357 354 352 349 346 344 342 343 341 342 343 343 342 342 336 330 330 330 327 326 324 322 316 304 295
167 163 142 119 58 94 117 129 128 113 92 76 58 44 33 26 21 15 11 9 6 4 0 357 356 355 352 349 344 343 341 342 341 342 342 341 341 341 337 333 333 333 328 328 326 324 319 306 295
110 139 126 97 97 101 126 135 135 123 89 64 46 33 23 17 13 11 8 7 4 1 359 356 354 353 353 350 345 342 339 339 339 340 339 339 339 339 338 337 335 333 329 325 322 325 321 317 310
132 133 120 115 113 119 143 145 142 123 82 56 37 25 14 5 3 4 3 3 1 358 356 352 352 350 351 347 340 337 333 333 335 335 334 337 337 337 336 337 334 332 328 324 324 324 319 316 317
124 1 211 166 133 144 155 180 182 156 116 71 42 23 13 5 357 356 357 358 358 357 355 350 349 347 348 346 341 339 337 336 339 338 335 334 334 334 334 334 333 330 329 322 322 319 316 314 311
187 20 239 178 184 199 207 254 184 183 170 51 24 15 7 1 354 353 353 355 356 355 352 349 347 346 348 347 347 344 342 340 337 336 331 331 332 332 334 333 331 329 326 322 320 318 312 309 306
355 349 227 204 221 228 210 258 163 180 213 352 10 6 1 356 351 349 352 352 352 353 351 348 346 347 349 348 348 345 342 338 334 335 333 334 332 332 333 333 330 327 325 323 320 316 311 307 301
299 160 135 171 212 250 206 229 189 177 199 2 2 358 354 352 348 346 348 350 350 351 351 348 346 347 348 348 347 345 343 340 337 338 336 335 332 331 332 332 329 326 325 323 320 316 312 307 301
354 312 292 281 255 272 120 237 37 127 98 19 353 348 348 347 344 344 346 348 349 350 350 347 347 346 348 347 347 343 342 339 337 337 334 334 331 332 331 330 327 326 325 323 322 318 314 310 306
10 354 355 316 308 315 209 265 123 142 99 1 348 344 344 346 345 344 346 347 347 347 348 347 346 345 346 346 344 341 342 338 335 334 332 330 329 328 328 328 326 325 325 324 323 319 316 315 312
345 29 358 286 285 280 251 146 155 184 265 343 347 348 348 347 345 344 344 347 347 347 347 346 344 344 345 344 342 340 340 338 335 332 331 331 329 328 329 328 327 325 324 324 324 318 318 319 317
33 81 270 307 318 308 301 271 174 170 325 344 346 348 347 347 346 345 346 348 347 346 345 345 344 343 342 342 341 337 337 336 334 331 332 331 330 329 328 328 328 326 324 324 323 319 318 321 320
34 101 68 303 288 296 307 343 103 110 11 346 345 347 347 347 347 346 347 348 346 346 346 344 343 342 341 341 339 337 336 335 334 334 333 331 330 330 329 328 327 327 326 326 322 321 318 320 321
54 68 271 301 295 261 285 315 121 90 3 347 344 347 349 348 347 345 345 346 346 346 344 342 341 341 340 338 336 335 335 335 335 335 334 332 331 330 329 328 327 327 327 326 323 320 317 315 319
Height
1535 1534 1533 1534 1533 1534 1544 1548 1545 1545 1548 1553 1552 1552 1556 1562 1567 1578 1581 1575 1572 1570 1568 1566 1563 1561 1559 1558 1556 1554 1553 1551 1550 1549 1548 1547 1546 1545 1544 1543 1543 1542 1541 1540 1540 1539 1538 1538 1537
1535 1534 1536 1535 1530 1543 1553 1550 1551 1554 1556 1556 1556 1558 1562 1572 1579 1582 1577 1575 1573 1571 1569 1566 1564 1562 1560 1559 1557 1555 1553 1552 1550 1549 1547 1546 1545 1544 1543 1542 1541 1540 1539 1539 1538 1537 1537 1536 1536
1535 1535 1538 1536 1539 1548 1556 1557 1557 1559 1559 1558 1562 1567 1574 1584 1586 1584 1581 1577 1574 1571 1569 1566 1564 1563 1561 1559 1557 1555 1554 1552 1550 1548 1547 1545 1544 1543 1542 1540 1540 1539 1538 1537 1536 1535 1535 1534 1534
1536 1539 1539 1541 1553 1560 1561 1562 1561 1559 1561 1565 1565 1575 1585 1593 1591 1588 1583 1579 1575 1572 1569 1567 1565 1563 1561 1559 1557 1555 1553 1551 1549 1548 1546 1544 1543 1541 1540 1539 1538 1537 1536 1535 1534 1533 1533 1532 1532
1538 1540 1542 1550 1558 1565 1568 1569 1567 1565 1569 1574 1571 1582 1591 1595 1593 1589 1585 1580 1576 1573 1570 1568 1565 1563 1561 1558 1556 1554 1552 1550 1548 1546 1544 1543 1541 1540 1538 1537 1536 1535 1534 1533 1532 1531 1531 1530 1530
1542 1541 1547 1557 1562 1565 1571 1575 1571 1574 1578 1580 1581 1586 1597 1599 1594 1590 1586 1581 1577 1574 1571 1569 1566 1563 1561 1558 1556 1554 1552 1550 1548 1546 1544 1542 1540 1538 1536 1535 1533 1532 1531 1530 1529 1529 1528 1528 1527
1544 1546 1553 1559 1564 1569 1576 1580 1581 1582 1585 1589 1589 1590 1599 1599 1595 1593 1589 1584 1579 1576 1572 1569 1567 1564 1562 1559 1557 1554 1552 1549 1547 1545 1543 1540 1538 1536 1535 1533 1531 1529 1528 1527 1526 1526 1525 1525 1524
1546 1550 1557 1560 1566 1576 1583 1586 1591 1591 1594 1596 1594 1596 1602 1602 1599 1595 1591 1585 1581 1577 1574 1571 1569 1566 1563 1560 1558 1555 1552 1549 1547 1544 1541 1539 1537 1535 1533 1530 1529 1527 1525 1524 1523 1522 1522 1521 1521
1548 1553 1562 1566 1569 1581 1587 1589 1596 1602 1601 1600 1602 1604 1606 1604 1600 1595 1589 1585 1582 1579 1576 1573 1570 1567 1565 1562 1559 1556 1553 1549 1546 1543 1540 1538 1535 1533 1530 1528 1526 1524 1523 1521 1520 1519 1518 1518 1517
1553 1559 1570 1574 1575 1585 1591 1593 1598 1604 1604 1605 1606 1607 1606 1604 1599 1593 1589 1587 1583 1581 1578 1575 1572 1569 1566 1562 1559 1555 1552 1549 1545 1542 1539 1536 1534 1531 1528 1526 1524 1522 1520 1519 1517 1516 1515 1514 1514
1562 1569 1577 1582 1584 1587 1592 1597 1600 1603 1608 1610 1610 1610 1607 1603 1598 1595 1593 1591 1588 1585 1581 1577 1574 1570 1566 1563 1559 1555 1551 1548 1544 1541 1537 1534 1532 1529 1526 1524 1521 1519 1517 1516 1514 1513 1512 1511 1510
1570 1581 1581 1586 1588 1591 1593 1599 1604 1607 1613 1614 1613 1611 1608 1604 1601 1599 1596 1594 1590 1586 1582 1579 1575 1571 1567 1563 1559 1554 1550 1546 1542 1539 1535 1531 1528 1525 1523 1520 1518 1516 1514 1512 1511 1509 1509 1507 1506
1575 1587 1589 1592 1593 1596 1598 1603 1607 1614 1616 1616 1615 1612 1609 1607 1605 1602 1599 1596 1592 1587 1583 1579 1575 1570 1566 1562 1557 1553 1549 1544 1540 1536 1532 1528 1524 1521 1518 1516 1513 1511 1509 1508 1506 1505 1504 1503 1502
1579 1586 1591 1595 1596 1600 1601 1607 1610 1618 1618 1618 1616 1613 1612 1609 1607 1603 1599 1596 1592 1588 1583 1579 1575 1570 1565 1560 1555 1551 1547 1542 1538 1534 1530 1526 1522 1517 1514 1511 1508 1506 1504 1502 1501 1500 1499 1498 1498
1581 1585 1591 1597 1598 1603 1602 1611 1617 1620 1619 1618 1617 1615 1613 1611 1608 1604 1601 1597 1593 1588 1584 1579 1574 1568 1563 1558 1553 1549 1544 1540 1536 1531 1527 1523 1519 1514 1510 1507 1503 1500 1497 1496 1495 1494 1493 1492 1492
1579 1578 1584 1597 1599 1601 1602 1612 1620 1621 1620 1619 1618 1617 1615 1613 1610 1607 1602 1598 1594 1589 1583 1578 1572 1567 1561 1556 1551 1546 1542 1538 1533 1529 1525 1520 1515 1511 1507 1503 1500 1496 1492 1490 1488 1487 1486 1486 1485
1573 1574 1581 1595 1600 1600 1600 1612 1621 1621 1621 1620 1619 1618 1616 1614 1611 1607 1603 1599 1594 1589 1583 1577 1571 1565 1559 1554 1549 1544 1540 1535 1531 1526 1522 1517 1512 1508 1504 1500 1496 1492 1488 1486 1483 1481 1479 1478 1478
1573 1574 1582 1590 1602 1602 1604 1613 1621 1622 1621 1620 1619 1618 1617 1614 1612 1608 1604 1599 1594 1588 1583 1576 1570 1564 1557 1552 1546 1541 1537 1532 1528 1524 1519 1514 1509 1504 1500 1496 1492 1489 1485 1481 1478 1476 1474 1472 1471
1575 1577 1585 1598 1605 1606 1609 1615 1620 1622 1621 1621 1620 1619 1617 1615 1613 1609 1604 1599 1593 1587 1581 1575 1569 1562 1556 1550 1544 1538 1533 1529 1525 1520 1516 1511 1506 1501 1497 1493 1488 1485 1481 1478 1475 1471 1469 1467 1466
1579 1581 1590 1603 1607 1607 1612 1616 1620 1622 1622 1622 1621 1619 1617 1614 1611 1608 1603 1598 1593 1587 1581 1574 1568 1562 1555 1549 1544 1538 1533 1527 1522 1517 1513 1508 1503 1498 1494 1490 1486 1482 1478 1474 1471 1468 1465 1463 1462
1583 1583 1586 1595 1607 1609 1611 1615 1618 1621 1622 1622 1621 1619 1617 1614 1611 1607 1602 1598 1592 1586 1579 1573 1567 1560 1554 1548 1542 1536 1530 1525 1520 1514 1509 1505 1500 1495 1491 1487 1483 1479 1475 1471 1468 1465 1463 1460 1458
1584 1589 1590 1594 1596 1595 1603 1587 1606 1616 1619 1619 1619 1618 1616 1613 1610 1606 1601 1596 1590 1584 1577 1571 1565 1559 1552 1546 1539 1534 1528 1523 1518 1512 1507 1502 1497 1493 1489 1484 1480 1476 1472 1468 1464 1462 1460 1457 1454
1588 1592 1590 1590 1588 1589 1596 1593 1593 1613 1614 1617 1618 1617 1615 1613 1609 1605 1600 1595 1589 1583 1576 1569 1563 1557 1551 1544 1538 1533 1528 1522 1516 1511 1505 1499 1494 1490 1486 1481 1477 1472 1468 1464 1461 1458 1455 1453 1451
1592 1591 1591 1590 1586 1582 1583 1589 1583 1607 1611 1616 1617 1616 1614 1611 1607 1603 1599 1594 1588 1581 1575 1568 1561 1555 1549 1543 1537 1532 1526 1520 1514 1508 1502 1496 1491 1487 1483 1478 1473 1469 1465 1460 1456 1453 1451 1449 1446
1588 1582 1575 1572 1571 1570 1591 1589 1594 1611 1616 1618 1618 1615 1613 1609 1606 1601 1597 1592 1586 1580 1573 1567 1560 1554 1548 1542 1536 1531 1525 1519 1513 1507 1501 1495 1489 1484 1479 1474 1470 1466 1461 1457 1452 1449 1446 1444 1441
1592 1588 1586 1584 1571 1568 1587 1587 1604 1614 1617 1618 1617 1615 1612 1608 1604 1600 1596 1590 1584 1578 1571 1565 1559 1553 1547 1540 1535 1529 1524 1518 1512 1506 1500 1494 1488 1482 1476 1471 1467 1462 1458 1453 1449 1445 1442 1439 1436
1593 1593 1597 1592 1585 1586 1576 1596 1612 1616 1616 1616 1615 1613 1610 1606 1603 1599 1594 1589 1583 1576 1570 1563 1557 1551 1545 1539 1533 1527 1521 1515 1509 1504 1498 1492 1486 1480 1474 1469 1464 1459 1455 1450 1446 1442 1438 1435 1431
1599 1599 1597 1592 1588 1579 1567 1583 1594 1611 1613 1615 1613 1611 1608 1605 1601 1597 1593 1587 1581 1575 1568 1562 1556 1550 1543 1537 1531 1525 1519 1513 1507 1501 1495 1489 1483 1477 1471 1466 1461 1456 1451 1447 1443 1439 1435 1431 1428
1600 1601 1599 1598 1597 1591 1581 1582 1606 1611 1614 1614 1613 1610 1607 1603 1599 1596 1591 1585 1580 1573 1567 1560 1554 1548 1541 1535 1528 1522 1516 1510 1504 1499 1493 1486 1480 1474 1469 1463 1458 1453 1448 1444 1440 1436 1432 1428 1424
1603 1602 1601 1598 1594 1597 1593 1594 1611 1613 1614 1614 1611 1609 1605 1602 1598 1594 1589 1584 1578 1571 1565 1559 1552 1546 1539 1533 1526 1520 1514 1508 1502 1496 1490 1484 1478 1472 1466 1461 1455 1450 1446 1441 1437 1433 1429 1425 1421